Regional Weather Roundup
Issued by NWS

Home | Current Version | Previous Version | Graphics & Text | Print | Product List | Glossary On
Versions: 1 2 3 4 5 6 7 8 9 10 11 12 13 14 15 16 17 18 19 20 21 22 23 24 25 26 27 28 29 30 31 32 33 34 35 36 37 38 39 40 41 42 43 44 45 46 47 48 49 50
000
ASUS43 KDTX 111410
RWRMI
MICHIGAN HOURLY REGIONAL WEATHER ROUNDUP
NATIONAL WEATHER SERVICE DETROIT/PONTIAC MI
900 AM EST MON DEC 11 2017

NOTE: "FAIR" INDICATES FEW OR NO CLOUDS BELOW 12,000 FEET WITH NO
SIGNIFICANT WEATHER AND/OR OBSTRUCTION TO VISIBILITY.

MIZ047>049-052>055-059>063-066>070-074>076-081>083-111500-
SOUTHEAST LOWER MICHIGAN

CITY           SKY/WX    TMP DP  RH WIND       PRES   REMARKS
ADRIAN         LGT SNOW  24  21  88 S6        30.02F VSB 1   WCI  17
ALMA           LGT SNOW  21  17  86 SE7       29.98F WCI  12
ANN ARBOR      CLOUDY    24  20  84 SE5       30.02F WCI  18
BAD AXE        CLOUDY    17  10  75 S3        30.01F
CARO           CLOUDY    17  10  76 S5        30.00S WCI  10
DETROIT CITY   CLOUDY    22  15  75 E6        30.03F WCI  14
DETROIT        CLOUDY    26  18  71 S3        30.04F
FLINT          CLOUDY    19  12  74 S6        30.01F WCI  11
GROSSE ILE     CLOUDY    26  20  79 CALM      30.03F
HILLSDALE      LGT SNOW  27  23  86 S6        29.96F WCI  20
HOWELL         CLOUDY    22  18  83 SE6       29.98F WCI  15

CITY           SKY/WX    TMP DP  RH WIND       PRES   REMARKS
JACKSON        SNOW      25  21  85 SE6       29.97F VSB 1/2 WCI  18
LAMBERTVILLE   CLOUDY    26  22  85 CALM      30.05R
LANSING        LGT SNOW  21  16  81 SE12      29.97F VSB 3/4 WCI   9
LAPEER         CLOUDY    17  10  73 S5        30.00F WCI  10
MASON          LGT SNOW  23  15  73 SE7       29.97F WCI  15
MONROE         CLOUDY    26  21  82 CALM      30.04S
MT. CLEMENS    CLOUDY    19  12  72 NE3       30.01F
PONTIAC        CLOUDY    20  16  84 SE5       29.99F WCI  13
PORT HOPE        N/A     18   9  68 S6        29.99F WCI  10
PORT HURON     PTCLDY    18  10  73 CALM      30.04F
TRI CITIES     CLOUDY    19  15  84 S6        30.02R WCI  11
MIDLAND        CLOUDY    20  14  77 SE6       30.00S WCI  12
TROY           CLOUDY    22  15  74 E6        30.02F WCI  14
SAGINAW HB     CLOUDY    19  14  79 S6        30.02R WCI  11
$$
MIZ043>046-050>051-056>058-064>065-071>073-077>080-111500-
SOUTHWEST LOWER MICHIGAN

CITY           SKY/WX    TMP DP  RH WIND       PRES   REMARKS
BATTLE CREEK   LGT SNOW  26  23  88 S7        29.95F FOG     WCI  18
BENTON HARBOR  LGT SNOW  28  22  78 S7        29.97S WCI  21
BIG RAPIDS     LGT SNOW  19  16  86 SE8       29.93S VSB 1   WCI   9
COLDWATER      LGT SNOW  27  24  89 S6        29.96F WCI  21
FREMONT        LGT SNOW  22  21  96 SE7       29.93F VSB 1   WCI  14
HOLLAND        LGT SNOW  27  24  89 S8        29.94F FOG     WCI  19
GRAND RAPIDS   SNOW      24  23  96 SE8       29.95F VSB 1/2 WCI  15
IONIA          LGT SNOW  21  17  85 SE7       29.95F WCI  12
KALAMAZOO      LGT SNOW  27  24  89 S10       29.96F FOG     WCI  17
LUDINGTON      LGT SNOW  22  18  87 SE7       29.92S WCI  13
MARSHALL       LGT SNOW  26  25  96 S6        29.95F WCI  19
MOUNT PLEASANT CLOUDY    21  14  74 SE6       29.96F WCI  13
MUSKEGON       LGT SNOW  25  21  85 SE10      29.93F FOG     WCI  15
SOUTH HAVEN    LGT SNOW  29  24  84 S7        29.96S WCI  22
$$
MIZ016>042-111500-
NORTHERN LOWER MICHIGAN

CITY           SKY/WX    TMP DP  RH WIND       PRES   REMARKS
ALPENA         CLOUDY    17  10  74 SW7       29.99R WCI   8
BEAVER ISLAND  CLOUDY    19  15  82 E3        29.91F
BELLAIRE       CLOUDY    19  15  84 CALM      29.95S
CADILLAC       LGT SNOW  17  13  84 S8        29.89S WCI   7
CHARLEVOIX     CLOUDY    19  15  81 SE6       29.95F WCI  11
FRANKFORT      LGT SNOW  22  17  82 SE6       29.93S WCI  15
GAYLORD        CLOUDY    14  10  84 S9        29.90S WCI   2
GRAYLING       CLOUDY    17  11  78 SE5       29.92F WCI  10
HARBOR SPRINGS CLOUDY    18  11  75 CALM      29.94S
HOUGHTON LAKE  CLOUDY    18  11  74 SE6       29.93F WCI  10
MANISTEE       LGT SNOW  21  17  84 SE7       29.93S FOG     WCI  12
OSCODA         CLOUDY    17   9  70 SW7       30.01R WCI   7
PELLSTON       CLOUDY    17  11  77 SE6       29.95S WCI   9
ROGERS CITY    CLOUDY    17  10  76 S9        29.98S WCI   5
TRAVERSE CITY  CLOUDY    21  13  71 SE5       29.93F WCI  15
$$
MIZ007>008-015-111500-
EASTERN UPPER MICHIGAN

CITY           SKY/WX    TMP DP  RH WIND       PRES   REMARKS
KINROSS        FLURRIES   8   4  83 E7        29.94  WCI  -3
MACKINAC ISLAN CLOUDY    20  11  68 S8        29.94R WCI  10
NEWBERRY       CLOUDY    13  13  97 E6        29.90F WCI   4
S. S. MARIE    CLOUDY     7   2  80 E7        29.96R WCI  -5
MUNISING         N/A     15   9  76 S6        29.87F WCI   6
$$
MIZ004>006-011>014-085-111500-
CENTRAL UPPER MICHIGAN

CITY           SKY/WX    TMP DP  RH WIND       PRES   REMARKS
MANISTIQUE     CLOUDY    15   7  68 CALM      29.89F
ESCANABA       LGT SNOW  21  18  86 S6        29.88F FOG     WCI  14
MENOMINEE      FLURRIES  21  19  92 S5        29.89F WCI  15
SAWYER-GWINN   LGT SNOW  12   9  85 S9        29.83F WCI   0
$$
MIZ001>003-009>011-084-111500-
WESTERN UPPER MICHIGAN

CITY           SKY/WX    TMP DP  RH WIND       PRES   REMARKS
IRON MOUNTAIN  FLURRIES  15  11  83 S6        29.81S WCI   6
HOUGHTON       LGT SNOW  15  11  83 S7        29.75F FOG     WCI   5
COPPER HARBOR    N/A     20  11  68 W9        29.79F WCI   9
IRONWOOD       LGT SNOW  19  16  86 S6        29.73S FOG     WCI  11
$$

ABBREVIATIONS USED IN REMARKS
   TC - TEMPERATURE IN CELSIUS
  WCI - WIND CHILL INDEX
   HX - HEAT INDEX
  VSB - VISIBILITY




USA.gov is the U.S. government's official web portal to all federal, state and local government web resources and services.